This demonstration page uses our WeatherBlox Daily Observations layout. Learn more.

Left ArrowRight Arrow

38.89511, -77.03637

Hourly Observations for January 27, 2019

Temp ( °F °C ) Dew Point ( °F °C ) Humidity (%) Winds ( mph kmh ) Pressure ( in mb ) Visibility ( mi km ) Precip ( " mm )
12:52 am 00:52 Mostly Clear 31 -0.6 21 -6.1 67 67 NE 3 6 30.18 1022 10 16 0.00 0.00
1:52 am 01:52 Mostly Clear 31 -0.6 22 -5.6 69 69 NE 5 7 30.16 1021 10 16 0.00 0.00
2:52 am 02:52 Mostly Clear 30 -1.1 23 -5 75 75 NE 3 6 30.16 1021 10 16 0.00 0.00
3:52 am 03:52 Mostly Cloudy 29 -1.7 23 -5 78 78 Calm 30.13 1020 10 16 0.00 0.00
4:52 am 04:52 Mostly Cloudy 29 -1.7 23 -5 78 78 WSW 3 6 30.11 1020 10 16 0.00 0.00
5:52 am 05:52 Cloudy 30 -1.1 23 -5 75 75 SW 3 6 30.11 1020 10 16 0.00 0.00
6:52 am 06:52 Mostly Clear 30 -1.1 23 -5 75 75 SSW 6 9 30.10 1019 10 16 0.00 0.00
7:52 am 07:52 Mostly Sunny 31 -0.6 23 -5 72 72 S 7 11 30.10 1019 10 16 0.00 0.00
8:52 am 08:52 Mostly Sunny 34 1.1 25 -3.9 70 70 S 14 22 30.09 1019 10 16 0.00 0.00
9:52 am 09:52 Mostly Cloudy 38 3.3 22 -5.6 52 52 SSW 15 24 30.07 1018 10 16 0.00 0.00
10:52 am 10:52 Mostly Cloudy 43 6.1 23 -5 45 45 SSW 14 22 30.05 1018 10 16 0.00 0.00
11:52 am 11:52 Cloudy 45 7.2 21 -6.1 39 39 SSW 14 22 30.05 1018 10 16 0.00 0.00
12:52 pm 12:52 Cloudy 47 8.3 23 -5 39 39 SW 13 20 30.01 1016 10 16 0.00 0.00
1:52 pm 13:52 Cloudy 48 8.9 24 -4.4 39 39 S 10 17 29.98 1015 10 16 0.00 0.00
2:52 pm 14:52 Cloudy 48 8.9 25 -3.9 41 41 S 12 19 29.97 1015 10 16 0.00 0.00
3:52 pm 15:52 Mostly Cloudy 48 8.9 25 -3.9 41 41 SSW 15 24 29.96 1015 10 16 0.00 0.00
4:52 pm 16:52 Cloudy 47 8.3 27 -2.8 46 46 SSW 9 15 29.98 1015 10 16 0.00 0.00
5:52 pm 17:52 Cloudy 47 8.3 26 -3.3 44 44 SSW 7 11 29.98 1015 10 16 0.00 0.00
6:52 pm 18:52 Cloudy 44 6.7 28 -2.2 53 53 SSW 5 7 29.99 1016 10 16 0.00 0.00
7:52 pm 19:52 Cloudy 46 7.8 28 -2.2 50 50 WSW 6 9 30.01 1016 10 16 0.00 0.00
8:52 pm 20:52 Cloudy 42 5.6 30 -1.1 62 62 SW 5 7 30.01 1016 10 16 0.00 0.00
9:52 pm 21:52 Cloudy 44 6.7 27 -2.8 51 51 N 8 13 30.02 1017 10 16 0.00 0.00
10:52 pm 22:52 Cloudy 43 6.1 24 -4.4 47 47 NNW 9 15 30.04 1017 10 16 0.00 0.00
11:52 pm 23:52 Cloudy 40 4.4 18 -7.8 41 41 N 12 19 30.05 1018 10 16 0.00 0.00

Powered by AerisWeather